Regional Weather Roundup
Issued by NWS

Home | Current Version | Previous Version | Text Only | Print | Product List | Glossary On
Versions: 1 2 3 4 5 6 7 8 9 10 11 12 13 14 15 16 17 18 19 20 21 22 23 24 25 26 27 28
000
ASUS42 KTBW 310710
RWRFL
FLORIDA REGIONAL WEATHER ROUNDUP
NATIONAL WEATHER SERVICE TAMPA BAY RUSKIN FL
300 AM EDT FRI OCT 31 2014

NOTE: "FAIR" INDICATES FEW OR NO CLOUDS BELOW 12,000 FEET WITH NO
SIGNIFICANT WEATHER AND/OR OBSTRUCTIONS TO VISIBILITY.


FLZ001>010-012>015-112-114-115-310800-
PANHANDLE FLORIDA

CITY           SKY/WX    TMP DP  RH WIND       PRES   REMARKS
PENSACOLA      CLEAR     53  40  61 N8        30.00F
PENSACOLA NAS  CLEAR     49  44  83 NW3       30.00S
MILTON NAS     CLEAR     48  41  76 NW3       30.00F
CRESTVIEW      CLEAR     45  42  89 CALM      30.00F
DUKE FIELD     FAIR      45  43  92 CALM      29.99F
VALPARAISO     CLEAR     53  41  65 N8        29.99F
MARY ESTHER    CLEAR     49  39  69 N7        29.98F
TRI COUNTY     FAIR      45  45 100 CALM      29.98F
PANAMA CITY    FAIR      47  43  86 NW7       29.97S WCI  44
TYNDALL AFB    CLEAR     58  44  60 N8        29.97S
APALACHICOLA   CLEAR     57  45  64 N8        29.95F

STATION/POSITION SKY/WX   TEMP    WIND        PRES    WAVE   SWELL
                          AIR SEA DIR/SP/G            HT/PER HT/PER
                          (F)     (DEG/KT/KT) (MB)    (FT/S) (FT/S)
30.1N   87.6W              67 76   10/ 12/ 16 1015.5F   2/ 3
29.2N   88.2W              70 77  360/ 16/ 19 1016.2F   3/ 5
28.8N   86.0W              71 79  360/ 14/ 16 1014.2F   3/ 5
PANAMA CITY BEAC           56 75  340/  8/ 10 1015.0F
CAPE SAN BLAS    NOT AVBL
TOWER C                    66     360/ 18/ 20 1013.4F
28.5N   84.5W              72 80  360/ 14/ 16 1013.0F   2/ 4

$$
FLZ011-016>038-118-127-128-134-139-239-310800-
NORTH FLORIDA

CITY           SKY/WX    TMP DP  RH WIND       PRES   REMARKS
MARIANNA       CLEAR     48  45  89 CALM      29.96F
TALLAHASSEE    CLEAR     47  40  76 MISG      29.94F
PERRY          CLEAR     50  46  87 NW3       29.92F
CROSS CITY       N/A     60  50  69 NW3       29.90F
LAKE CITY      FAIR      55  50  82 N5        29.89F
GAINESVILLE    CLOUDY    61  56  83 W5        29.88F
MAYPORT NAS    CLOUDY    65  61  87 VRB5      29.86F
JACKSONVILLE   PTCLDY    59  56  89 CALM      29.87F
JAX NAS        MOCLDY    66  54  65 NW5       29.87F
JAX CRAIG      MOCLDY    64  59  83 NW7       29.87S
JAX CECIL      PTCLDY    59  54  82 W3        29.88F
ST AUGUSTINE   CLOUDY    64  63  96 NW6       29.86F

STATION/POSITION SKY/WX   TEMP    WIND        PRES    WAVE   SWELL
                          AIR SEA DIR/SP/G            HT/PER HT/PER
                          (F)     (DEG/KT/KT) (MB)    (FT/S) (FT/S)
SHELL POINT                57     340/  6/  8   N/A
KEATON BEACH               58     350/  6/ 10 1012.9F
CEDAR KEY                  66     350/  6/  7 1013.1F
FERNANDINA                 68 75                N/A
30.7N   81.3W                 76                N/A     2/ 4
MAYPORT                    65 76  310/  6/  8   N/A
31.4N   80.9W              69 74   20/ 10/ 12 1011.2F   2/ 5   2/ 5
ST AUGUSTINE               65     310/  7/  8 1011.5F

$$
FLZ040-043>046-052-053-057-058-063-144-310800-
INTERIOR CENTRAL FLORIDA

CITY           SKY/WX    TMP DP  RH WIND       PRES   REMARKS
OCALA          CLEAR     63  61  94 CALM      29.88F
THE VILLAGES     N/A     66  64  94 NW6       29.78F
LEESBURG       MOCLDY    68  64  87 N6        29.87F
SANFORD        MOCLDY    66  62  87 NW5       29.85F
ORLANDO EXEC   PTCLDY    70  67  90 NE3       29.85F
ORLANDO INTL   PTCLDY    70  67  90 CALM      29.85F
WINTER HAVEN   PTCLDY    70  66  87 N6        29.86F
LAKELAND       CLOUDY    68  66  94 NW7       29.86F
BARTOW         MOCLDY    70  68  94 NW5       29.86F
OKEECHOBEE       N/A     70  68  94 MISG        N/A

$$
FLZ041-047-054-059-064-141-147-310800-
EAST CENTRAL FLORIDA

CITY           SKY/WX    TMP DP  RH WIND       PRES   REMARKS
DAYTONA BEACH  MOCLDY    66  62  87 CALM      29.86F
DELAND         SUNNY     64  61  88 NW3       29.87F
JFK SPACE CTR  PTCLDY    67  65  93 E2        29.85F
CAPE CANAVERAL PTCLDY    66  64  93 NE2       29.84F
PATRICK AFB    DRIZZLE   70  68  94 NE3       29.84F
MELBOURNE      CLOUDY    70  67  90 S3        29.85F
VERO BEACH     MOCLDY    67  65  93 NW6       29.84F
FT PIERCE      CLEAR     67  65  93 SW3       29.84F
STUART         PTCLDY    70  66  88 W5        29.86F

STATION/POSITION SKY/WX   TEMP    WIND        PRES    WAVE   SWELL
                          AIR SEA DIR/SP/G            HT/PER HT/PER
                          (F)     (DEG/KT/KT) (MB)    (FT/S) (FT/S)
28.9N   78.5W              79 82  270/  6/  8 1010.1F   3/ 8   3/ 8
TRIDENT PIER               69 78  180/  2/  3 1010.5F
28.4N   80.5W                 78                N/A     1/ 6
27.6N   80.2W                 79                N/A     2/ 7

$$
FLZ050-056-061-142-242-148-248-149-249-151-251-155-255-
160-260-310800-
WEST CENTRAL FLORIDA

CITY           SKY/WX    TMP DP  RH WIND       PRES   REMARKS
CRYSTAL RIVER  PTSUNNY   64  55  72 CALM      29.88F
INVERNESS      PTSUNNY   64  63  94 N5        29.88F
BROOKSVILLE    CLOUDY    68  65  90 N7        29.88F
ZEPHYRHILLS    PTSUNNY   68  66  94 N3        29.87F
CLEARWATER     CLOUDY    72  69  90 N3        29.87F
TAMPA INTL     CLOUDY    71  67  87 N3        29.87F
TAMPA EXEC     CLOUDY    70  68  94 CALM      29.87F
PLANT CITY     CLOUDY    72 N/A N/A NW3       29.88F
MACDILL AFB    MOCLDY    71  70  97 N3        29.86F
ST PETERSBURG  CLOUDY    73  69  87 N6        29.85F
SARASOTA       CLEAR     71  68  90 N5        29.85F
VENICE           N/A     72  68  88 NE5       29.86F

STATION/POSITION SKY/WX   TEMP    WIND        PRES    WAVE   SWELL
                          AIR SEA DIR/SP/G            HT/PER HT/PER
                          (F)     (DEG/KT/KT) (MB)    (FT/S) (FT/S)
CEDAR KEY                  66     350/  6/  7 1013.1F
28.5N   84.5W              72 80  360/ 14/ 16 1013.0F   2/ 4
27.3N   84.3W                 80                N/A     4/ 5
CLEARWATER BEACH           74 77  340/ 14/ 17 1011.4F
MIDDLE TAMPA BAY           73      10/ 10/ 12 1011.7F
VENICE                     73 79   30/  5/  6 1010.4F

$$
FLZ066-069-070-075>078-162-262-165-265-310800-
SOUTHWEST FLORIDA AND KEYS

CITY           SKY/WX    TMP DP  RH WIND       PRES   REMARKS
PUNTA GORDA    CLEAR     70  67  90 CALM      29.87F
FT MYERS       PTCLDY    72  69  90 CALM      29.84F
SOUTHWEST INTL PTCLDY    71  68  90 CALM      29.85F
NAPLES         CLEAR     72  69  90 CALM      29.85F
MARCO ISLAND   SUNNY     70  66  88 CALM      29.85F
MARATHON       CLEAR     72  68  87 CALM      29.87F
KEY WEST NAS   CLEAR     75  68  78 SW6       29.87F
KEY WEST INTL  CLEAR     74  71  91 CALM      29.88F

STATION/POSITION SKY/WX   TEMP    WIND        PRES    WAVE   SWELL
                          AIR SEA DIR/SP/G            HT/PER HT/PER
                          (F)     (DEG/KT/KT) (MB)    (FT/S) (FT/S)
VENICE                     73 79   30/  5/  6 1010.4F
NAPLES                     78 83  310/  4/  5 1011.7F
26.0N   85.6W              78 80  350/ 16/ 17 1012.7F   3/ 5
DRY TORTUGAS               78     220/  2/  3 1011.9F
NW FL BAY                  77      70/  6/  8 1012.2F
SAND KEY                   78        CALM     1011.7F
SOMBRERO KEY               78     280/  7/  7 1012.0F
LONG KEY                   78 80  260/  5/  5 1012.6F
MOLASSES REEF              78 81  300/  8/  9 1011.1F

$$
FLZ067-068-071>074-168-172>174-310800-
SOUTHEAST FLORIDA

CITY           SKY/WX    TMP DP  RH WIND       PRES   REMARKS
W PALM BEACH   PTCLDY    71  69  93 SW5       29.83F
FT LAUDER-EXEC CLEAR     72  66  81 CALM      29.84F
FT LAUDERDALE  CLEAR     75  69  81 SW6       29.84F
POMPANO BEACH  CLEAR     74  66  76 CALM      29.84F
PEMBROKE PINES CLEAR     73  69  87 CALM      29.86F
OPA LOCKA      CLEAR     73  69  87 W5        29.85F
MIAMI          PTCLDY    74  70  87 SW5       29.85F
WEST KENDALL   CLEAR     75  69  81 SW6       29.86F
HOMESTEAD      CLEAR     69  66  90 SW3       29.86F

STATION/POSITION SKY/WX   TEMP    WIND        PRES    WAVE   SWELL
                          AIR SEA DIR/SP/G            HT/PER HT/PER
                          (F)     (DEG/KT/KT) (MB)    (FT/S) (FT/S)
PORT EVERGLADES            75     220/  3/  5 1010.5
VIRGINIA KEY               76 80  260/  6/  9 1011.5F
LAKE WORTH                 74 81  230/  4/  6 1010.5F
FOWEY ROCKS                76 79  270/ 11/ 12 1011.0F
SETTLEMENT POINT           78     250/  4/  5 1010.9F

$$




USA.gov is the U.S. government's official web portal to all federal, state and local government web resources and services.